P/2003 QX29 ( NEAT ) 2025

Japanese version
Home page
Updated on September 8, 2024

---------------------------------------------------------------------

* Profile

* Orbital Elements

Perturbed ephemeris below is based on elements from MPC 50139. 

 Epoch = 2460880.50000 TT   T = 2460894.46047 TT
 Peri. =   37.69074         a =     7.9990619 AU
 Node  =  264.48422 J2000.0 e =     0.4712842
 Incl. =   11.40010         q =     4.2292305 AU

* Magnitudes Graph

        m1 = 10.0 + 5 log d + 10.0 log r

---------------------------------------------------------------------

The orbital elements are calculated using the Minor Planet & Comet Ephemeris Service.
The magnitudes graphs are made with Comet for Windows.

---------------------------------------------------------------------

Copyright(C) Seiichi Yoshida (comet@aerith.net). All rights reserved.